• In United Kingdom
  • List of Countries
  • For 7 days
  • Water Temperature
  • Satellite Maps
  • Weather Map
  • Weather Widgets
  • user-avatar
    Login

    Hourly Weather Sankt Polten

    Today, 19 August, Saturday

    Time Temperature Precipitation Wind Pressure Humidity
    00:00 +22°C° 0.2 mm 3 mps 735 mmHg 76%
    01:00 +22°C° 0 mm 5 mps 736 mmHg 82%
    02:00 +21°C° 0.1 mm 4 mps 736 mmHg 85%
    03:00 +20°C° 0.1 mm 3 mps 736 mmHg 88%
    04:00 +19°C° 0.1 mm 2 mps 736 mmHg 91%
    05:00 +19°C° 0.1 mm 2 mps 736 mmHg 90%
    06:00 +19°C° 0.1 mm 2 mps 737 mmHg 88%
    07:00 +19°C° 0 mm 2 mps 737 mmHg 88%
    08:00 +19°C° 1.8 mm 2 mps 737 mmHg 89%
    09:00 +18°C° 1.8 mm 2 mps 737 mmHg 90%
    10:00 +18°C° 1.8 mm 2 mps 738 mmHg 91%
    11:00 +18°C° 2.2 mm 2 mps 738 mmHg 92%
    12:00 +18°C° 2.2 mm 2 mps 738 mmHg 92%
    13:00 +18°C° 2.2 mm 2 mps 738 mmHg 93%
    14:00 +17°C° 1.4 mm 2 mps 738 mmHg 93%
    15:00 +17°C° 1.4 mm 2 mps 738 mmHg 93%
    16:00 +17°C° 1.4 mm 2 mps 738 mmHg 94%
    17:00 +17°C° 1.4 mm 2 mps 738 mmHg 94%
    18:00 +16°C° 1.4 mm 2 mps 738 mmHg 94%
    19:00 +16°C° 1.4 mm 2 mps 739 mmHg 95%
    20:00 +16°C° 0.7 mm 2 mps 739 mmHg 94%
    21:00 +16°C° 0.7 mm 2 mps 739 mmHg 94%
    22:00 +15°C° 0.7 mm 2 mps 739 mmHg 93%
    23:00 +15°C° 0.1 mm 2 mps 739 mmHg 93%

    Tomorrow, 20 August, Sunday

    Time Temperature Precipitation Wind Pressure Humidity
    00:00 +15°C° 0.1 mm 2 mps 739 mmHg 93%
    01:00 +15°C° 0.1 mm 2 mps 739 mmHg 92%
    02:00 +15°C° 0 mm 2 mps 739 mmHg 92%
    03:00 +15°C° 0 mm 2 mps 738 mmHg 92%
    04:00 +15°C° 0 mm 2 mps 738 mmHg 92%
    05:00 +15°C° 0 mm 2 mps 738 mmHg 91%
    06:00 +15°C° 0 mm 2 mps 738 mmHg 90%
    07:00 +16°C° 0 mm 2 mps 739 mmHg 89%
    08:00 +17°C° 0.1 mm 3 mps 739 mmHg 80%
    09:00 +19°C° 0.1 mm 4 mps 739 mmHg 71%
    10:00 +20°C° 0.1 mm 4 mps 739 mmHg 62%
    11:00 +21°C° 0.1 mm 4 mps 739 mmHg 60%
    12:00 +21°C° 0.1 mm 4 mps 739 mmHg 57%
    13:00 +22°C° 0.1 mm 4 mps 739 mmHg 54%
    14:00 +22°C° 0.3 mm 4 mps 739 mmHg 56%
    15:00 +21°C° 0.3 mm 4 mps 739 mmHg 58%
    16:00 +21°C° 0.3 mm 4 mps 738 mmHg 60%
    17:00 +19°C° 0.2 mm 3 mps 739 mmHg 67%
    18:00 +18°C° 0.2 mm 3 mps 739 mmHg 74%
    19:00 +16°C° 0.2 mm 3 mps 739 mmHg 80%
    20:00 +16°C° 0 mm 3 mps 740 mmHg 83%
    21:00 +15°C° 0 mm 2 mps 740 mmHg 85%
    22:00 +14°C° 0 mm 2 mps 740 mmHg 87%
    23:00 +13°C° 0 mm 3 mps 740 mmHg 87%

    Day after tomorrow, 21 August, Monday

    Time Temperature Precipitation Wind Pressure Humidity
    00:00 +12°C° 0 mm 3 mps 740 mmHg 87%
    01:00 +12°C° 0 mm 3 mps 740 mmHg 87%
    02:00 +13°C° 0 mm 2 mps 740 mmHg 87%
    03:00 +12°C° 0 mm 2 mps 740 mmHg 88%
    04:00 +12°C° 0 mm 2 mps 740 mmHg 88%
    05:00 +12°C° 0 mm 3 mps 740 mmHg 85%
    06:00 +13°C° 0 mm 3 mps 740 mmHg 81%
    07:00 +14°C° 0 mm 3 mps 741 mmHg 77%
    08:00 +16°C° 0 mm 3 mps 741 mmHg 71%
    09:00 +18°C° 0 mm 4 mps 740 mmHg 65%
    10:00 +19°C° 0 mm 4 mps 740 mmHg 59%
    11:00 +20°C° 0.1 mm 4 mps 740 mmHg 57%
    12:00 +21°C° 0.1 mm 4 mps 740 mmHg 54%
    13:00 +21°C° 0.1 mm 4 mps 739 mmHg 52%
    14:00 +21°C° 0.1 mm 4 mps 739 mmHg 52%
    15:00 +21°C° 0.1 mm 4 mps 739 mmHg 53%
    16:00 +21°C° 0.1 mm 4 mps 739 mmHg 53%
    17:00 +20°C° 0.1 mm 3 mps 739 mmHg 61%
    18:00 +18°C° 0.1 mm 2 mps 739 mmHg 69%
    19:00 +16°C° 0.1 mm 2 mps 739 mmHg 78%
    20:00 +16°C° 0 mm 2 mps 739 mmHg 80%
    21:00 +15°C° 0 mm 2 mps 740 mmHg 83%
    22:00 +14°C° 0 mm 2 mps 740 mmHg 86%
    23:00 +14°C° 0 mm 2 mps 740 mmHg 87%

    22 August, Tuesday

    Time Temperature Precipitation Wind Pressure Humidity
    00:00 +13°C° 0 mm 2 mps 740 mmHg 88%
    01:00 +13°C° 0 mm 2 mps 740 mmHg 88%
    02:00 +12°C° 0 mm 2 mps 740 mmHg 89%
    03:00 +12°C° 0 mm 2 mps 740 mmHg 90%
    04:00 +12°C° 0 mm 2 mps 740 mmHg 90%
    05:00 +13°C° 0 mm 2 mps 740 mmHg 87%
    06:00 +14°C° 0 mm 1 mps 740 mmHg 83%
    07:00 +15°C° 0 mm 1 mps 740 mmHg 80%
    08:00 +18°C° 0 mm 1 mps 740 mmHg 70%
    09:00 +19°C° 0 mm 2 mps 740 mmHg 61%
    10:00 +21°C° 0 mm 2 mps 740 mmHg 52%
    11:00 +23°C° 0 mm 2 mps 739 mmHg 49%
    12:00 +24°C° 0 mm 2 mps 739 mmHg 45%
    13:00 +25°C° 0 mm 2 mps 738 mmHg 42%
    14:00 +25°C° 0 mm 1 mps 738 mmHg 42%
    15:00 +25°C° 0 mm 1 mps 738 mmHg 42%
    16:00 +25°C° 0 mm 1 mps 737 mmHg 42%
    17:00 +22°C° 0 mm 1 mps 737 mmHg 50%
    18:00 +20°C° 0 mm 1 mps 737 mmHg 59%
    19:00 +18°C° 0 mm 1 mps 737 mmHg 67%
    20:00 +16°C° 0 mm 1 mps 737 mmHg 70%
    21:00 +15°C° 0 mm 1 mps 737 mmHg 72%
    22:00 +15°C° 0 mm 1 mps 737 mmHg 74%
    23:00 +14°C° 0 mm 1 mps 737 mmHg 75%

    23 August, Wednesday

    Time Temperature Precipitation Wind Pressure Humidity
    00:00 +14°C° 0 mm 1 mps 737 mmHg 76%
    01:00 +14°C° 0 mm 1 mps 737 mmHg 77%
    02:00 +13°C° 0 mm 1 mps 737 mmHg 78%
    03:00 +13°C° 0 mm 1 mps 737 mmHg 79%
    04:00 +13°C° 0 mm 1 mps 737 mmHg 79%
    05:00 +14°C° 0 mm 1 mps 737 mmHg 76%
    06:00 +16°C° 0 mm 1 mps 737 mmHg 73%
    07:00 +18°C° 0 mm 1 mps 737 mmHg 70%
    08:00 +20°C° 0 mm 1 mps 737 mmHg 62%
    09:00 +23°C° 0 mm 1 mps 737 mmHg 55%
    10:00 +25°C° 0 mm 1 mps 738 mmHg 47%
    11:00 +26°C° 0 mm 1 mps 737 mmHg 44%
    12:00 +27°C° 0 mm 1 mps 737 mmHg 41%
    13:00 +28°C° 0 mm 1 mps 737 mmHg 39%
    14:00 +28°C° 0 mm 1 mps 737 mmHg 40%
    15:00 +28°C° 0 mm 1 mps 736 mmHg 41%
    16:00 +28°C° 0 mm 1 mps 736 mmHg 42%
    17:00 +26°C° 0 mm 1 mps 736 mmHg 51%
    18:00 +23°C° 0 mm 1 mps 736 mmHg 59%
    19:00 +19°C° 0 mm 0 mps 736 mmHg 68%
    20:00 +20°C° 0 mm 1 mps 736 mmHg 70%
    21:00 +20°C° 0 mm 1 mps 737 mmHg 72%
    22:00 +19°C° 0 mm 1 mps 737 mmHg 74%
    23:00 +19°C° 0 mm 1 mps 737 mmHg 75%

    24 August, Thursday

    Time Temperature Precipitation Wind Pressure Humidity
    00:00 +19°C° 0 mm 1 mps 737 mmHg 76%
    01:00 +18°C° 0 mm 1 mps 737 mmHg 77%
    02:00 +18°C° 0 mm 1 mps 737 mmHg 78%
    03:00 +18°C° 0 mm 1 mps 737 mmHg 78%
    04:00 +18°C° 0 mm 1 mps 737 mmHg 79%
    05:00 +19°C° 0 mm 1 mps 737 mmHg 76%
    06:00 +21°C° 0 mm 1 mps 737 mmHg 73%
    07:00 +22°C° 0 mm 1 mps 738 mmHg 70%
    08:00 +24°C° 0 mm 1 mps 738 mmHg 63%
    09:00 +27°C° 0 mm 1 mps 738 mmHg 56%
    10:00 +29°C° 0 mm 1 mps 738 mmHg 49%
    11:00 +30°C° 0 mm 1 mps 738 mmHg 46%
    12:00 +31°C° 0 mm 2 mps 738 mmHg 43%
    13:00 +32°C° 0 mm 2 mps 737 mmHg 39%
    14:00 +32°C° 0 mm 2 mps 737 mmHg 40%
    15:00 +32°C° 0 mm 2 mps 737 mmHg 41%
    16:00 +32°C° 0 mm 2 mps 737 mmHg 42%
    17:00 +29°C° 0 mm 1 mps 737 mmHg 50%
    18:00 +27°C° 0 mm 1 mps 737 mmHg 59%
    19:00 +25°C° 0 mm 1 mps 737 mmHg 67%
    20:00 +24°C° 0.2 mm 1 mps 737 mmHg 71%
    21:00 +24°C° 0.2 mm 1 mps 738 mmHg 74%
    22:00 +23°C° 0.2 mm 1 mps 738 mmHg 77%
    23:00 +23°C° 0 mm 1 mps 738 mmHg 78%
    Show more